Location: Trois-Rivi�res
(46.3500°N, 72.5500°W)
Time: 08:20:08
(UTC-04:00)

Cosmos 1544 - Visible Passes

Search period start: 02 August 2015 00:00
Search period end: 12 August 2015 00:00
Orbit: 489 x 509 km, 82.5° (Epoch: 01 August)

Date Brightness Start Highest point End Pass type
(mag) Time Alt. Az. Time Alt. Az. Time Alt. Az.
02 Aug 4.8 03:36:13 10° SSE 03:39:32 31° E 03:42:55 10° NNE visible
03 Aug 5.3 03:16:33 11° SE 03:19:24 23° E 03:22:28 10° NE visible
03 Aug 4.4 04:51:29 10° SW 04:54:43 26° WNW 04:57:57 10° NNW visible
04 Aug 5.7 02:56:52 10° SE 02:59:17 17° E 03:01:50 10° NE visible
04 Aug 3.9 04:31:34 14° SW 04:34:26 36° WNW 04:37:57 10° N visible
05 Aug 5.9 02:37:37 10° ESE 02:39:11 12° E 02:40:54 10° ENE visible
05 Aug 3.4 04:11:51 20° SSW 04:14:10 50° WNW 04:17:52 10° N visible
06 Aug 3.1 03:52:06 29° SSW 03:53:55 72° W 03:57:43 10° N visible
07 Aug 3.1 03:32:20 38° S 03:33:41 81° E 03:37:30 10° N visible
08 Aug 3.6 03:12:33 42° SSE 03:13:29 56° E 03:17:13 10° NNE visible
08 Aug 5.4 04:47:40 10° W 04:49:20 12° WNW 04:50:51 10° NW visible
09 Aug 4.1 02:52:43 37° ESE 02:53:17 39° E 02:56:52 10° NNE visible
09 Aug 5.1 04:27:24 14° W 04:28:55 16° WNW 04:31:19 10° NNW visible
10 Aug 4.7 02:32:53 28° E 02:33:06 29° E 02:36:25 10° NNE visible
10 Aug 4.7 04:07:33 20° W 04:08:32 21° WNW 04:11:29 10° NNW visible
11 Aug 5.2 02:13:01 21° E 02:13:01 21° E 02:15:52 10° NE visible
11 Aug 4.2 03:47:41 28° W 03:48:11 29° WNW 03:51:31 10° NNW visible
